Terminal Aerodrome Forecast
Issued by NWS Cleveland, OH

Home | Current Version | Previous Version | Text Only | Print | Product List | Glossary On
Versions: 1 2 3 4 5 6 7 8 9 10 11 12 13 14 15 16 17 18 19 20 21 22 23 24 25 26 27 28
690
FTUS41 KCLE 300447 AAB
TAFCLE
TAF AMD
KCLE 300447Z 3005/3106 20010KT P6SM SCT050 BKN100
     FM300600 20010KT P6SM VCSH SCT050 BKN120
      TEMPO 3007/3010 6SM -SHRA BKN060
     FM301000 21008KT P6SM SCT050
     FM301600 24012G18KT P6SM BKN050=

USA.gov is the U.S. government's official web portal to all federal, state and local government web resources and services.